EZY74BT LFPG-EGBB

Flight info

Callsign EZY74BT
Flight time 0h 51m
Altitude 26000
Route OPALE DCT KESAX DCT DIMAL DCT ALESO T420 HEMEL
Aircraft A320/M-SDE2E3FGHIJ1RWXYZ/LB1

Departure

Time 2026-05-04 13:06
Airport Charles de Gaulle International Airport (LFPG)

Arrival

Time 2026-05-04 13:58
Airport Birmingham Airport (EGBB)
Time Latitude Longitude Altitude Speed Heading
2026-05-04 12:35 49.00695 2.56216 359 ft 0 kts 355°
2026-05-04 12:53 49.00683 2.56218 362 ft 4 kts 350°
2026-05-04 12:53 49.00658 2.56229 361 ft 4 kts 328°
2026-05-04 12:54 49.00640 2.56256 361 ft 4 kts 283°
2026-05-04 12:54 49.00639 2.56269 361 ft 0 kts 266°
2026-05-04 12:57 49.00638 2.56238 362 ft 8 kts 267°
2026-05-04 12:57 49.00629 2.56109 354 ft 17 kts 263°
2026-05-04 12:57 49.00582 2.55959 359 ft 15 kts 235°
2026-05-04 12:57 49.00567 2.55818 361 ft 12 kts 266°
2026-05-04 12:58 49.00559 2.55664 354 ft 17 kts 265°
2026-05-04 12:58 49.00549 2.55489 364 ft 13 kts 266°
2026-05-04 12:58 49.00622 2.55394 354 ft 17 kts 344°
2026-05-04 12:58 49.00752 2.55339 361 ft 21 kts 345°
2026-05-04 12:59 49.00893 2.55276 357 ft 21 kts 343°
2026-05-04 12:59 49.01036 2.55215 356 ft 21 kts 344°
2026-05-04 12:59 49.01181 2.55153 360 ft 22 kts 349°
2026-05-04 12:59 49.01315 2.55216 354 ft 20 kts 10°
2026-05-04 13:00 49.01443 2.55180 363 ft 19 kts 345°
2026-05-04 13:00 49.01568 2.55157 356 ft 18 kts 355°
2026-05-04 13:00 49.01695 2.55141 354 ft 18 kts 355°
2026-05-04 13:00 49.01822 2.55126 354 ft 18 kts 355°
2026-05-04 13:01 49.01937 2.55069 359 ft 17 kts 308°
2026-05-04 13:01 49.01940 2.54909 354 ft 14 kts 265°
2026-05-04 13:01 49.01931 2.54732 362 ft 23 kts 265°
2026-05-04 13:01 49.01919 2.54483 356 ft 24 kts 265°
2026-05-04 13:02 49.01906 2.54225 354 ft 25 kts 265°
2026-05-04 13:02 49.01892 2.53959 359 ft 26 kts 265°
2026-05-04 13:02 49.01877 2.53707 357 ft 20 kts 265°
2026-05-04 13:02 49.01866 2.53507 359 ft 18 kts 265°
2026-05-04 13:03 49.01853 2.53327 355 ft 15 kts 262°
2026-05-04 13:03 49.01846 2.53179 354 ft 13 kts 268°
2026-05-04 13:03 49.01840 2.53007 354 ft 22 kts 265°
2026-05-04 13:03 49.01833 2.52805 354 ft 13 kts 280°
2026-05-04 13:04 49.01891 2.52737 354 ft 10 kts 352°
2026-05-04 13:04 49.01950 2.52735 354 ft 7 kts 358°
2026-05-04 13:04 49.02006 2.52730 354 ft 12 kts 357°
2026-05-04 13:04 49.02100 2.52721 355 ft 13 kts 356°
2026-05-04 13:05 49.02145 2.52785 358 ft 8 kts 80°
2026-05-04 13:05 49.02151 2.52884 362 ft 17 kts 85°
2026-05-04 13:05 49.02181 2.53472 357 ft 91 kts 86°
2026-05-04 13:05 49.02250 2.54736 359 ft 145 kts 85°
2026-05-04 13:06 49.02352 2.56370 878 ft 149 kts 85°
2026-05-04 13:06 49.02451 2.57958 1539 ft 153 kts 86°
2026-05-04 13:06 49.02549 2.59643 1968 ft 169 kts 85°
2026-05-04 13:06 49.02645 2.61501 2335 ft 188 kts 86°
2026-05-04 13:07 49.02745 2.63608 2629 ft 213 kts 86°
2026-05-04 13:07 49.02862 2.66010 3049 ft 237 kts 86°
2026-05-04 13:07 49.02994 2.68636 3566 ft 258 kts 86°
2026-05-04 13:07 49.03136 2.71405 4420 ft 264 kts 85°
2026-05-04 13:08 49.03646 2.74095 5309 ft 270 kts 57°
2026-05-04 13:08 49.05064 2.75961 6222 ft 276 kts 22°
2026-05-04 13:08 49.06958 2.76303 7183 ft 280 kts 350°
2026-05-04 13:08 49.08781 2.75244 8122 ft 284 kts 331°
2026-05-04 13:09 49.10464 2.73636 9042 ft 288 kts 326°
2026-05-04 13:09 49.12141 2.71899 9721 ft 294 kts 327°
2026-05-04 13:09 49.13866 2.70209 9912 ft 295 kts 329°
2026-05-04 13:09 49.15657 2.68621 10206 ft 307 kts 331°
2026-05-04 13:10 49.17613 2.67028 10647 ft 327 kts 333°
2026-05-04 13:10 49.19672 2.65448 11391 ft 335 kts 335°
2026-05-04 13:10 49.21777 2.63883 12188 ft 339 kts 334°
2026-05-04 13:10 49.23799 2.61956 12922 ft 344 kts 326°
2026-05-04 13:11 49.25794 2.59806 13666 ft 348 kts 326°
2026-05-04 13:11 49.27785 2.57652 14300 ft 353 kts 325°
2026-05-04 13:11 49.29791 2.55468 14944 ft 356 kts 324°
2026-05-04 13:11 49.31818 2.53249 15572 ft 360 kts 324°
2026-05-04 13:12 49.33171 2.51764 15987 ft 362 kts 324°
2026-05-04 13:12 49.35230 2.49499 16606 ft 367 kts 324°
2026-05-04 13:12 49.37312 2.47207 17272 ft 371 kts 324°
2026-05-04 13:12 49.39432 2.44871 17949 ft 375 kts 323°
2026-05-04 13:13 49.41558 2.42527 18558 ft 380 kts 323°
2026-05-04 13:13 49.43716 2.40146 19122 ft 383 kts 323°
2026-05-04 13:13 49.45890 2.37746 19666 ft 386 kts 323°
2026-05-04 13:13 49.48080 2.35328 20264 ft 390 kts 323°
2026-05-04 13:14 49.50290 2.32884 20866 ft 393 kts 322°
2026-05-04 13:14 49.52512 2.30426 21469 ft 394 kts 322°
2026-05-04 13:14 49.54746 2.27952 22021 ft 397 kts 322°
2026-05-04 13:14 49.56998 2.25458 22563 ft 400 kts 322°
2026-05-04 13:15 49.59266 2.22939 23116 ft 404 kts 322°
2026-05-04 13:15 49.61548 2.20395 23596 ft 407 kts 322°
2026-05-04 13:15 49.63856 2.17817 24037 ft 411 kts 322°
2026-05-04 13:15 49.66176 2.15222 24445 ft 414 kts 322°
2026-05-04 13:16 49.68519 2.12603 24847 ft 417 kts 322°
2026-05-04 13:16 49.70873 2.09974 25235 ft 420 kts 322°
2026-05-04 13:16 49.73277 2.07287 25612 ft 422 kts 322°
2026-05-04 13:16 49.75634 2.04646 25909 ft 425 kts 322°
2026-05-04 13:17 49.78047 2.01943 25970 ft 416 kts 322°
2026-05-04 13:17 49.80343 1.99371 25974 ft 403 kts 321°
2026-05-04 13:17 49.82577 1.96865 25977 ft 400 kts 321°
2026-05-04 13:17 49.84852 1.94305 25977 ft 399 kts 321°
2026-05-04 13:18 49.87067 1.91804 25981 ft 399 kts 321°
2026-05-04 13:18 49.89338 1.89233 25980 ft 398 kts 321°
2026-05-04 13:18 49.91531 1.86709 25980 ft 398 kts 320°
2026-05-04 13:18 49.93745 1.84044 25980 ft 398 kts 319°
2026-05-04 13:19 49.95906 1.81365 25991 ft 398 kts 318°
2026-05-04 13:19 49.98032 1.78694 25986 ft 398 kts 318°
2026-05-04 13:19 50.00184 1.75981 25984 ft 398 kts 318°
2026-05-04 13:19 50.02366 1.73241 25982 ft 398 kts 318°
2026-05-04 13:20 50.04527 1.70545 25980 ft 398 kts 319°
2026-05-04 13:20 50.06707 1.67964 25981 ft 400 kts 324°
2026-05-04 13:20 50.09151 1.65884 25980 ft 402 kts 333°
2026-05-04 13:20 50.11723 1.64052 25983 ft 402 kts 333°
2026-05-04 13:21 50.14262 1.62229 25989 ft 402 kts 333°
2026-05-04 13:21 50.16798 1.60394 25988 ft 402 kts 333°
2026-05-04 13:21 50.19333 1.58550 25987 ft 402 kts 333°
2026-05-04 13:21 50.21865 1.56702 25987 ft 402 kts 333°
2026-05-04 13:22 50.24365 1.54878 25984 ft 402 kts 333°
2026-05-04 13:22 50.26926 1.53009 25986 ft 402 kts 333°
2026-05-04 13:22 50.29457 1.51161 25983 ft 401 kts 333°
2026-05-04 13:22 50.31990 1.49312 25984 ft 401 kts 333°
2026-05-04 13:23 50.34517 1.47462 25989 ft 401 kts 333°
2026-05-04 13:23 50.37047 1.45607 25987 ft 402 kts 333°
2026-05-04 13:23 50.39580 1.43746 25987 ft 402 kts 333°
2026-05-04 13:23 50.42109 1.41886 25993 ft 402 kts 333°
2026-05-04 13:24 50.44636 1.40026 25988 ft 402 kts 333°
2026-05-04 13:24 50.47154 1.38136 26002 ft 401 kts 329°
2026-05-04 13:24 50.49485 1.35766 26000 ft 398 kts 319°
2026-05-04 13:25 50.53371 1.29666 26002 ft 395 kts 309°
2026-05-04 13:25 50.55239 1.26487 25996 ft 395 kts 310°
2026-05-04 13:25 50.57107 1.23314 25998 ft 395 kts 310°
2026-05-04 13:25 50.58992 1.20165 26000 ft 396 kts 311°
2026-05-04 13:26 50.60923 1.17072 25999 ft 396 kts 312°
2026-05-04 13:26 50.62880 1.14016 26001 ft 396 kts 313°
2026-05-04 13:26 50.64843 1.10977 26007 ft 396 kts 313°
2026-05-04 13:26 50.66807 1.07929 26018 ft 396 kts 312°
2026-05-04 13:27 50.68757 1.04879 26024 ft 395 kts 312°
2026-05-04 13:27 50.70699 1.01817 26023 ft 395 kts 312°
2026-05-04 13:27 50.72633 0.98751 26028 ft 394 kts 312°
2026-05-04 13:27 50.74563 0.95675 26028 ft 394 kts 311°
2026-05-04 13:28 50.76487 0.92600 26031 ft 394 kts 311°
2026-05-04 13:28 50.78562 0.89280 26031 ft 393 kts 311°
2026-05-04 13:28 50.79889 0.87158 26036 ft 392 kts 311°
2026-05-04 13:28 50.81808 0.84091 26038 ft 392 kts 311°
2026-05-04 13:29 50.83723 0.81031 26028 ft 391 kts 311°
2026-05-04 13:29 50.85634 0.77975 26024 ft 391 kts 311°
2026-05-04 13:29 50.87546 0.74912 26033 ft 391 kts 311°
2026-05-04 13:29 50.89456 0.71847 26037 ft 390 kts 311°
2026-05-04 13:30 50.91357 0.68789 26035 ft 390 kts 311°
2026-05-04 13:30 50.93254 0.65725 26032 ft 389 kts 311°
2026-05-04 13:30 50.95147 0.62669 26027 ft 388 kts 311°
2026-05-04 13:30 50.97039 0.59615 26026 ft 388 kts 311°
2026-05-04 13:31 50.98930 0.56562 26024 ft 388 kts 311°
2026-05-04 13:31 51.00818 0.53509 26023 ft 387 kts 311°
2026-05-04 13:31 51.02705 0.50453 26020 ft 387 kts 311°
2026-05-04 13:31 51.04588 0.47397 26017 ft 387 kts 311°
2026-05-04 13:32 51.06471 0.44341 26021 ft 387 kts 311°
2026-05-04 13:32 51.08370 0.41310 26017 ft 387 kts 312°
2026-05-04 13:32 51.10305 0.38330 26014 ft 387 kts 313°
2026-05-04 13:32 51.12257 0.35380 26009 ft 388 kts 313°
2026-05-04 13:33 51.14219 0.32435 26006 ft 388 kts 313°
2026-05-04 13:33 51.16179 0.29485 26003 ft 387 kts 313°
2026-05-04 13:33 51.18131 0.26523 26001 ft 387 kts 313°
2026-05-04 13:33 51.20072 0.23554 26000 ft 387 kts 313°
2026-05-04 13:34 51.22010 0.20572 25998 ft 387 kts 312°
2026-05-04 13:34 51.23945 0.17588 25998 ft 387 kts 312°
2026-05-04 13:34 51.25882 0.14599 25999 ft 387 kts 312°
2026-05-04 13:34 51.27818 0.11613 26002 ft 387 kts 312°
2026-05-04 13:35 51.29759 0.08618 26006 ft 388 kts 313°
2026-05-04 13:35 51.33823 0.02850 26029 ft 391 kts 323°
2026-05-04 13:35 51.36124 0.00625 26025 ft 392 kts 327°
2026-05-04 13:36 51.38499 -0.01611 26032 ft 392 kts 326°
2026-05-04 13:36 51.40847 -0.03836 26020 ft 392 kts 326°
2026-05-04 13:36 51.43189 -0.06064 26009 ft 392 kts 326°
2026-05-04 13:36 51.45540 -0.08304 26014 ft 393 kts 326°
2026-05-04 13:37 51.47888 -0.10540 26012 ft 393 kts 326°
2026-05-04 13:37 51.50257 -0.12799 26015 ft 393 kts 326°
2026-05-04 13:37 51.52585 -0.15025 26011 ft 393 kts 326°
2026-05-04 13:37 51.54137 -0.16508 26018 ft 393 kts 326°
2026-05-04 13:38 51.57311 -0.19543 26014 ft 393 kts 326°
2026-05-04 13:38 51.59653 -0.21782 25938 ft 388 kts 327°
2026-05-04 13:38 51.61955 -0.23988 25689 ft 386 kts 327°
2026-05-04 13:38 51.64252 -0.26193 25414 ft 381 kts 327°
2026-05-04 13:39 51.66519 -0.28370 24995 ft 378 kts 327°
2026-05-04 13:39 51.68767 -0.30533 24588 ft 374 kts 327°
2026-05-04 13:39 51.70987 -0.32670 24149 ft 371 kts 327°
2026-05-04 13:39 51.73205 -0.34810 23671 ft 370 kts 327°
2026-05-04 13:40 51.75409 -0.36940 23150 ft 369 kts 327°
2026-05-04 13:40 51.77603 -0.39064 22676 ft 366 kts 327°
2026-05-04 13:40 51.79780 -0.41171 22194 ft 364 kts 327°
2026-05-04 13:40 51.81942 -0.43267 21697 ft 363 kts 327°
2026-05-04 13:41 51.84107 -0.45368 21161 ft 363 kts 327°
2026-05-04 13:41 51.86272 -0.47474 20634 ft 363 kts 327°
2026-05-04 13:41 51.88439 -0.49586 20108 ft 364 kts 327°
2026-05-04 13:42 51.92730 -0.53766 19056 ft 351 kts 327°
2026-05-04 13:42 51.94794 -0.55772 18554 ft 342 kts 327°
2026-05-04 13:42 51.96818 -0.57740 18046 ft 335 kts 327°
2026-05-04 13:42 51.98769 -0.59644 17655 ft 323 kts 327°
2026-05-04 13:43 52.00682 -0.61520 17067 ft 319 kts 327°
2026-05-04 13:43 52.02565 -0.63368 16610 ft 314 kts 327°
2026-05-04 13:43 52.04434 -0.65200 16151 ft 316 kts 327°
2026-05-04 13:43 52.06314 -0.67048 15847 ft 314 kts 327°
2026-05-04 13:44 52.08223 -0.68932 15239 ft 325 kts 327°
2026-05-04 13:44 52.10166 -0.70847 14738 ft 329 kts 327°
2026-05-04 13:44 52.12131 -0.72781 14271 ft 331 kts 327°
2026-05-04 13:44 52.14113 -0.74729 13779 ft 333 kts 327°
2026-05-04 13:45 52.16080 -0.76666 13451 ft 329 kts 327°
2026-05-04 13:45 52.18032 -0.78592 13030 ft 327 kts 327°
2026-05-04 13:45 52.19976 -0.80515 12607 ft 326 kts 326°
2026-05-04 13:45 52.21903 -0.82425 12227 ft 323 kts 326°
2026-05-04 13:46 52.23117 -0.83890 11961 ft 320 kts 315°
2026-05-04 13:46 52.24517 -0.86650 11576 ft 315 kts 299°
2026-05-04 13:46 52.25381 -0.89960 11180 ft 310 kts 283°
2026-05-04 13:46 52.25841 -0.93287 10821 ft 298 kts 281°
2026-05-04 13:47 52.26128 -0.96487 10675 ft 278 kts 266°
2026-05-04 13:47 52.25938 -0.99588 10455 ft 273 kts 261°
2026-05-04 13:47 52.25679 -1.02648 10156 ft 271 kts 261°
2026-05-04 13:47 52.25413 -1.05683 9844 ft 270 kts 261°
2026-05-04 13:48 52.25142 -1.08707 9515 ft 269 kts 261°
2026-05-04 13:48 52.24873 -1.11712 9167 ft 267 kts 261°
2026-05-04 13:48 52.24604 -1.14708 8801 ft 266 kts 261°
2026-05-04 13:48 52.24334 -1.17697 8435 ft 265 kts 261°
2026-05-04 13:49 52.24073 -1.20658 8085 ft 263 kts 261°
2026-05-04 13:49 52.23813 -1.23606 7706 ft 262 kts 261°
2026-05-04 13:49 52.23561 -1.26542 7365 ft 260 kts 261°
2026-05-04 13:49 52.23314 -1.29450 6988 ft 259 kts 261°
2026-05-04 13:50 52.23061 -1.32364 6605 ft 259 kts 261°
2026-05-04 13:50 52.22814 -1.35258 6268 ft 256 kts 261°
2026-05-04 13:50 52.22567 -1.38047 6088 ft 241 kts 261°
2026-05-04 13:50 52.22331 -1.40712 5682 ft 237 kts 261°
2026-05-04 13:51 52.22090 -1.43363 5393 ft 235 kts 261°
2026-05-04 13:51 52.22017 -1.46007 5065 ft 234 kts 278°
2026-05-04 13:51 52.22508 -1.48498 4859 ft 228 kts 299°
2026-05-04 13:51 52.23464 -1.50500 4652 ft 221 kts 319°
2026-05-04 13:52 52.25885 -1.53254 4402 ft 206 kts 327°
2026-05-04 13:52 52.27072 -1.54558 4266 ft 200 kts 327°
2026-05-04 13:52 52.28207 -1.55805 4180 ft 194 kts 326°
2026-05-04 13:53 52.29321 -1.57032 3991 ft 193 kts 326°
2026-05-04 13:53 52.30423 -1.58246 3777 ft 191 kts 327°
2026-05-04 13:53 52.31521 -1.59456 3528 ft 190 kts 327°
2026-05-04 13:54 52.33701 -1.61861 3015 ft 188 kts 327°
2026-05-04 13:54 52.34782 -1.63055 2762 ft 187 kts 327°
2026-05-04 13:54 52.36835 -1.65325 2276 ft 165 kts 328°
2026-05-04 13:55 52.37758 -1.66346 2053 ft 155 kts 328°
2026-05-04 13:55 52.39490 -1.68263 1644 ft 147 kts 328°
2026-05-04 13:55 52.40340 -1.69204 1441 ft 145 kts 329°
2026-05-04 13:56 52.41177 -1.70131 1234 ft 145 kts 327°
2026-05-04 13:56 52.42009 -1.71053 1023 ft 143 kts 327°
2026-05-04 13:56 52.43641 -1.72863 621 ft 142 kts 327°
2026-05-04 13:57 52.44487 -1.73810 402 ft 141 kts 328°
2026-05-04 13:57 52.45274 -1.74673 325 ft 126 kts 327°
2026-05-04 13:58 52.46180 -1.75553 311 ft 11 kts 56°
2026-05-04 13:58 52.46131 -1.75302 303 ft 14 kts 146°
2026-05-04 13:58 52.46060 -1.75222 306 ft 12 kts 145°
2026-05-04 13:59 52.45990 -1.75145 305 ft 15 kts 146°
2026-05-04 13:59 52.45872 -1.75013 308 ft 24 kts 145°
2026-05-04 13:59 52.45613 -1.74723 319 ft 19 kts 146°
2026-05-04 14:00 52.45517 -1.74617 322 ft 15 kts 146°
2026-05-04 14:00 52.45412 -1.74368 323 ft 14 kts 117°
2026-05-04 14:00 52.45370 -1.74233 323 ft 13 kts 116°
2026-05-04 14:01 52.45333 -1.74111 322 ft 11 kts 116°
2026-05-04 14:01 52.45308 -1.74002 323 ft 9 kts 88°
2026-05-04 14:01 52.45390 -1.73791 323 ft 4 kts 56°
2026-05-04 14:02 52.45395 -1.73753 323 ft 2 kts 98°
2026-05-04 14:02 52.45386 -1.73742 323 ft 1 kts 148°
2026-05-04 14:02 52.45375 -1.73730 323 ft 4 kts 147°
2026-05-04 14:02 52.45353 -1.73707 322 ft 3 kts 146°
2026-05-04 14:03 52.45344 -1.73697 323 ft 0 kts 146°